Regional Weather Roundup
Issued by NWS

Home | Current Version | Previous Version | Text Only | Print | Product List | Glossary On
Versions: 1 2 3 4 5 6 7 8 9 10 11 12 13 14 15 16 17 18 19 20 21 22 23 24 25 26 27 28 29 30 31 32 33 34 35 36 37 38 39 40 41 42 43 44 45 46 47 48 49 50
000
ASCA42 TJSJ 092210
RWRPR
PUERTO RICO/U.S. VIRGIN ISLANDS HOURLY WEATHER ROUNDUP
NATIONAL WEATHER SERVICE SAN JUAN PR
600 PM AST TUE FEB 09 2016

PRZ001-004-092300-
PUERTO RICO

CITY           SKY/WX    TMP DP  RH WIND       PRES   REMARKS
SAN JUAN LMM   PTCLDY    82  72  69 E12       30.05R
AGUADILLA      MOCLDY    81  72  74 NE7       30.06R
CEIBA          MOCLDY    79  73  83 E8        30.09R
$$

PRZ006-007-092300-
U.S. VIRGIN ISLANDS

CITY           SKY/WX    TMP DP  RH WIND       PRES   REMARKS
CHARLOTTE AMA  PTCLDY    81  72  74 E10       30.06R
CHRISTIANSTED  PTCLDY    81  72  74 E12       30.06S
$$

HOURLY WEATHER ROUNDUP FOR THE NEWS MEDIA

CITY           SKY/WX    TMP DP  RH WIND       PRES   REMARKS
ORLANDO        PTSUNNY   59  39  47 W14       29.94S
NEW YORK       MOCLDY    35  23  61 E3        29.60R
NEWARK         MOCLDY    35  24  64 W3        29.59R
CHICAGO        FLURRIES  17   7  64 NW15      29.87R WCI   2
HARTFORD       CLOUDY    28  24  85 N6        29.58R WCI  22
BOSTON         CLOUDY    29  18  63 CALM      29.60S
DALLAS         MOSUNNY   62  25  24 N15       30.22S
PHILADELPHIA   LGT SNOW  34  30  85 NE8       29.58  VSB 3/4 WCI  27
LOS ANGELES    MOSUNNY   85  32  15 W10       30.06F
WASHINGTON DC  MOCLDY    36  25  64 NW13      29.60R WCI  27


USA.gov is the U.S. government's official web portal to all federal, state and local government web resources and services.